STARLINK-34996 (65223 NORAD) Tracking and Keplerian Element Data

This shows tracking and keplerian element data for the satellite.

Feedback or suggestion? Click here.




ElementValue
Catalog65223
NameSTARLINK-34996
Epoch Orbit2088
Epoch Day353.7677768
Epoch Year2025
RAAN163.9789
Inclination53.1577
Eccentricity0.0001236
Argument of Perigee94.4293
Mean Anonmoly265.6849
Mean Motion15.30212202
Decay Rate0.00024412
L11 65223U 25176AB 25353.76777680 .00024412 00000+0 83334-3 0 9991
L22 65223 53.1577 163.9789 0001236 94.4293 265.6849 15.30212202 20880



Live tracking and technical data element details for STARLINK-34996 (NORAD 65223). STARLINK-34996 can be tracked NOW for your location showing map with azimuth and elevation plus other details from your city location.







IsCatalogInMostPopularTable: catalog: 65223, numindb: 4
Update: records affected: 1



GetName: 65223 STARLINK-34996

Hit Count: updated at: Tue, 10 Feb 2026 03:58:57 GMT